(174957) = 2006 QJ84 = 2004 CJ129

Discovered at Kitt Peak on 2004-02-14 by Spacewatch.

Orbit

Orbit type: Main Belt

Note: WebGL enabled browser required.

epoch2023-02-25.0
epoch JD2460000.5
perihelion date2022-02-06.25186
perihelion JD2459616.75186
argument of perihelion (°)73.08998
ascending node (°)15.18085
inclination (°)1.80465
eccentricity0.0424916
perihelion distance (AU)2.6818544
Tisserand w.r.t. Jupiter3.3
ΔV w.r.t. Earth (km/sec)10.2
semimajor axis (AU)2.8008678
mean anomaly (°)80.68842
mean daily motion (°/day)0.21026400
aphelion distance (AU)2.920
period (years)4.69
P-vector [x]0.03029948
P-vector [y]0.90465895
P-vector [z]0.42505780
Q-vector [x]-0.99950685
Q-vector [y]0.02391382
Q-vector [z]0.02035179
absolute magnitude16.52
phase slope0.15
uncertainty0
referenceMPO 745323
observations used431
oppositions16
arc length (days)10239
first opposition used1995
last opposition used2023
residual rms (arc-secs)0.69
perturbers coarse indicatorM-v
perturbers precise indicator003Ek
first observation date used1995-04-05.0
last observation date used2023-04-17.0
computer nameMPCLINUX
JD of orbit computation2456819.674224
perihelion JD uncertainty (days)2.5998E-04
argument of perihelion uncertainty (°)1.2977E-04
ascending node uncertainty (°)1.1734E-04
inclination uncertainty (°)4.7156E-06
eccentricity uncertainty 3.7086E-08
perihelion distance uncertainty (AU)1.0517E-07
Minimum Orbit Intersection Distances (in AU)
for orbit epoch: 2460000.5, reference: E2023-H66
Mercury2.37266
Venus1.96224
Earth1.69796
Mars1.06063
Jupiter2.15527
Saturn6.3839
Uranus15.6596
Neptune27.0933

Observations

438 total observations over interval: 1995 04 05.39906 – 2023 04 17.298012
These data are available for download (format description).

Date (UT) J2000 RA J2000 Dec Magn Location Ref
1995 04 05.39906 12 35 51.60 -03 38 34.0 20.8 V 691 – Steward Observatory, Kitt Peak-Spacewatch MPS 178454
1995 04 05.42135 12 35 50.49 -03 38 27.8   691 – Steward Observatory, Kitt Peak-Spacewatch MPS 178454
2000 04 29.27080 14 28 16.39 -15 50 48.0 20.8 V 691 – Steward Observatory, Kitt Peak-Spacewatch MPS 178454
2000 04 29.29236 14 28 15.21 -15 50 43.0 20.7 V 691 – Steward Observatory, Kitt Peak-Spacewatch MPS 178454
2000 04 29.31399 14 28 14.08 -15 50 38.3 20.6 V 691 – Steward Observatory, Kitt Peak-Spacewatch MPS 178454
2000 05 11.28805 14 18 08.26 -15 06 48.8 21.3 V 691 – Steward Observatory, Kitt Peak-Spacewatch MPS 178454
2000 05 11.30941 14 18 07.16 -15 06 44.7 21.8 V 691 – Steward Observatory, Kitt Peak-Spacewatch MPS 178454
2000 05 11.33179 14 18 06.14 -15 06 39.5 21.4 V 691 – Steward Observatory, Kitt Peak-Spacewatch MPS 178454
2004 02 14.45415 10 32 35.34 +11 15 52.7 20.8 V 691 – Steward Observatory, Kitt Peak-Spacewatch MPS 109971
2004 02 14.48130 10 32 33.95 +11 15 59.7 20.9 V 691 – Steward Observatory, Kitt Peak-Spacewatch MPS 109971
2004 02 14.50902 10 32 32.58 +11 16 07.4 20.8 V 691 – Steward Observatory, Kitt Peak-Spacewatch MPS 109971
2004 02 23.27761 10 25 02.90 +11 55 53.4 19.9   704 – Lincoln Laboratory ETS, New Mexico MPS 109971
2004 02 23.29149 10 25 02.19 +11 55 58.3 19.9   704 – Lincoln Laboratory ETS, New Mexico MPS 109971
2004 02 23.30299 10 25 01.54 +11 55 59.9 20.1   704 – Lincoln Laboratory ETS, New Mexico MPS 109971
2004 02 23.31695 10 25 00.75 +11 56 05.0 20.3   704 – Lincoln Laboratory ETS, New Mexico MPS 109971
2004 02 23.33120 10 24 59.97 +11 56 08.3 20.4   704 – Lincoln Laboratory ETS, New Mexico MPS 109971
2004 03 17.12849 10 07 02.11 +13 20 16.0 21.3 V 691 – Steward Observatory, Kitt Peak-Spacewatch MPS 178454
2004 03 17.15831 10 07 00.99 +13 20 20.5 21.1 V 691 – Steward Observatory, Kitt Peak-Spacewatch MPS 178454
2004 03 17.18721 10 06 59.81 +13 20 25.0 21.3 V 691 – Steward Observatory, Kitt Peak-Spacewatch MPS 178454
2006 08 23.14697 22 48 19.80 -09 30 45.1 18.8 R 807 – Cerro Tololo Observatory, La Serena MPS 182663
2006 08 23.21392 22 48 16.53 -09 31 03.1   807 – Cerro Tololo Observatory, La Serena MPS 182663
2006 08 27.23379 22 45 03.07 -09 49 00.4 20.8 V 691 – Steward Observatory, Kitt Peak-Spacewatch MPS 177240
2006 08 27.25118 22 45 02.17 -09 49 04.9 21.0 V 691 – Steward Observatory, Kitt Peak-Spacewatch MPS 177240
2006 08 27.26855 22 45 01.29 -09 49 09.8 20.6 V 691 – Steward Observatory, Kitt Peak-Spacewatch MPS 177240
2006 08 28.23317 22 44 14.03 -09 53 27.8 20.3 V 691 – Steward Observatory, Kitt Peak-Spacewatch MPS 177241
2006 08 28.25047 22 44 13.14 -09 53 32.7 20.4 V 691 – Steward Observatory, Kitt Peak-Spacewatch MPS 177241
2006 08 28.26777 22 44 12.25 -09 53 37.5 20.4 V 691 – Steward Observatory, Kitt Peak-Spacewatch MPS 177241
2006 09 26.20257 22 22 25.78 -11 41 21.1 20.8 V G96 – Mt. Lemmon Survey MPS 181027
2006 09 26.20952 22 22 25.57 -11 41 21.9 20.7 V G96 – Mt. Lemmon Survey MPS 181027
2006 09 26.21654 22 22 25.28 -11 41 23.2 20.6 V G96 – Mt. Lemmon Survey MPS 181027
2006 09 26.22649 22 22 24.92 -11 41 23.8 20.9 V G96 – Mt. Lemmon Survey MPS 181027
2007 12 06.22908 05 26 35.62 +25 46 53.9 20.3 V 691 – Steward Observatory, Kitt Peak-Spacewatch MPS 229799
2007 12 06.23225 05 26 35.42 +25 46 54.2 19.9 V 691 – Steward Observatory, Kitt Peak-Spacewatch MPS 229799
2007 12 06.23562 05 26 35.15 +25 46 55.5 19.5 V 691 – Steward Observatory, Kitt Peak-Spacewatch MPS 229799
2007 12 14.25680 05 18 32.76 +25 42 50.4 19.7   704 – Lincoln Laboratory ETS, New Mexico MPS 231338
2007 12 14.26971 05 18 31.97 +25 42 49.6 20.2   704 – Lincoln Laboratory ETS, New Mexico MPS 231338
2007 12 14.28283 05 18 31.14 +25 42 48.5 20.1   704 – Lincoln Laboratory ETS, New Mexico MPS 231338
2007 12 14.29575 05 18 30.33 +25 42 47.6 19.9   704 – Lincoln Laboratory ETS, New Mexico MPS 231338
2007 12 14.30867 05 18 29.50 +25 42 48.4 19.8   704 – Lincoln Laboratory ETS, New Mexico MPS 231338
2007 12 16.19045 05 16 35.99 +25 41 20.2 19.8 V 691 – Steward Observatory, Kitt Peak-Spacewatch MPS 231338
2007 12 16.20810 05 16 34.90 +25 41 19.4 19.6 V 691 – Steward Observatory, Kitt Peak-Spacewatch MPS 231338
2007 12 16.22575 05 16 33.80 +25 41 18.8 19.8 V 691 – Steward Observatory, Kitt Peak-Spacewatch MPS 231338
2007 12 20.17522 05 12 38.83 +25 37 41.6 19.9 V 691 – Steward Observatory, Kitt Peak-Spacewatch MPS 231787
2007 12 20.19291 05 12 37.76 +25 37 40.8 19.9 V 691 – Steward Observatory, Kitt Peak-Spacewatch MPS 231787
2007 12 20.21059 05 12 36.70 +25 37 39.7 19.7 V 691 – Steward Observatory, Kitt Peak-Spacewatch MPS 231787
2007 12 28.17477 05 05 13.64 +25 28 33.4   691 – Steward Observatory, Kitt Peak-Spacewatch MPS 231787
2007 12 28.19581 05 05 12.50 +25 28 32.0   691 – Steward Observatory, Kitt Peak-Spacewatch MPS 231787
2007 12 28.21685 05 05 11.38 +25 28 30.1   691 – Steward Observatory, Kitt Peak-Spacewatch MPS 231787
2008 02 07.15428 04 51 34.95 +24 48 18.5 20.2 V G96 – Mt. Lemmon Survey MPS 237323
2008 02 07.16211 04 51 35.06 +24 48 18.4 20.5 V G96 – Mt. Lemmon Survey MPS 237323
2008 02 07.16988 04 51 35.17 +24 48 18.5 19.9 V G96 – Mt. Lemmon Survey MPS 237323
2008 02 07.17764 04 51 35.24 +24 48 18.4 20.3 V G96 – Mt. Lemmon Survey MPS 237323
2009 02 19.40541 12 41 53.10 -03 39 14.3 20.8 V 691 – Steward Observatory, Kitt Peak-Spacewatch MPS 277456
2009 02 19.42351 12 41 52.69 -03 39 11.8 20.9 V 691 – Steward Observatory, Kitt Peak-Spacewatch MPS 277456
2009 02 19.44161 12 41 52.27 -03 39 10.1 20.7 V 691 – Steward Observatory, Kitt Peak-Spacewatch MPS 277456
2009 02 26.40444 12 38 50.42 -03 22 33.1 20.7 V G96 – Mt. Lemmon Survey MPS 278476
2009 02 26.40891 12 38 50.28 -03 22 32.1 21.2 V G96 – Mt. Lemmon Survey MPS 278476
2009 02 26.40930 12 38 50.25 -03 22 32.4 20.8 V 691 – Steward Observatory, Kitt Peak-Spacewatch MPS 279520
2009 02 26.41545 12 38 50.10 -03 22 30.9 22.1 V G96 – Mt. Lemmon Survey MPS 278476
2009 02 26.42140 12 38 49.88 -03 22 30.2 21.0 V G96 – Mt. Lemmon Survey MPS 278476
2009 02 26.42491 12 38 49.76 -03 22 29.9 20.7 V 691 – Steward Observatory, Kitt Peak-Spacewatch MPS 279520
2009 02 26.44053 12 38 49.17 -03 22 27.9 20.6 V 691 – Steward Observatory, Kitt Peak-Spacewatch MPS 279520
2009 04 21.15629 11 59 59.46 +00 15 21.8 20.8 V G96 – Mt. Lemmon Survey MPS 285542
2009 04 21.16446 11 59 59.17 +00 15 23.3 20.8 V G96 – Mt. Lemmon Survey MPS 285542
2009 04 21.17267 11 59 58.92 +00 15 24.4 20.8 V G96 – Mt. Lemmon Survey MPS 285542
2009 04 21.18081 11 59 58.63 +00 15 25.9 20.7 V G96 – Mt. Lemmon Survey MPS 285542
2009 04 28.17647 11 56 45.38 +00 31 41.3 20.8 V G96 – Mt. Lemmon Survey MPS 286356
2009 04 28.18197 11 56 45.24 +00 31 41.4 20.4 V G96 – Mt. Lemmon Survey MPS 286356
2009 04 28.18746 11 56 45.09 +00 31 42.2 21.1 V G96 – Mt. Lemmon Survey MPS 286356
2009 04 28.19289 11 56 44.95 +00 31 43.2 21.0 V G96 – Mt. Lemmon Survey MPS 286356
2011 09 09.29980 00 50 05.47 +04 45 57.3   691 – Steward Observatory, Kitt Peak-Spacewatch MPS 390963
2011 09 09.31753 00 50 04.80 +04 45 54.5   691 – Steward Observatory, Kitt Peak-Spacewatch MPS 390963
2011 09 09.33525 00 50 04.10 +04 45 50.2   691 – Steward Observatory, Kitt Peak-Spacewatch MPS 390963
2011 09 26.42729 00 37 47.955 +03 38 17.05 20.8 w F51 – Pan-STARRS 1, Haleakala MPS 393938
2011 09 26.44131 00 37 47.209 +03 38 13.35 21.0 w F51 – Pan-STARRS 1, Haleakala MPS 393938
2011 09 26.46163 00 37 46.208 +03 38 07.72 20.7 w F51 – Pan-STARRS 1, Haleakala MPS 393938
2011 09 26.47607 00 37 45.475 +03 38 03.87 20.6 w F51 – Pan-STARRS 1, Haleakala MPS 393938
2011 09 28.27664 00 36 17.46 +03 29 52.0 20.2 V G96 – Mt. Lemmon Survey MPS 393938
2011 09 28.28462 00 36 17.06 +03 29 49.6 20.3 V G96 – Mt. Lemmon Survey MPS 393938
2011 09 28.29260 00 36 16.63 +03 29 47.5 20.2 V G96 – Mt. Lemmon Survey MPS 393938
2011 09 28.30068 00 36 16.23 +03 29 45.1 20.1 V G96 – Mt. Lemmon Survey MPS 393938
2011 10 19.33575 00 19 36.177 +01 57 18.94 20.9 g F51 – Pan-STARRS 1, Haleakala MPS 395981
2011 10 19.34822 00 19 35.633 +01 57 15.92 20.9 g F51 – Pan-STARRS 1, Haleakala MPS 395981
2011 10 19.36162 00 19 35.047 +01 57 13.21 20.5 r F51 – Pan-STARRS 1, Haleakala MPS 395981
